Location: Banff
(51.1667°N, 115.5667°W)
Time: 13:03:20
(UTC+00:00)

Vanguard 1 Rocket - Pass Details

Date: 29 November 2020
Orbit: 655 x 4222 km, 34.3° (Epoch: 23 January)

Event Time Altitude Azimuth Distance (km) Brightness Sun altitude
Rises 12:07:23 0° 261° (W) 8,415 - -29.6°
Reaches altitude 10° 12:14:01 10° 256° (WSW) 7,184 - -28.6°
Exits shadow 12:23:38 27° 242° (WSW) 5,338 10.8 -27.1°
Maximum altitude 12:34:04 42° 196° (SSW) 3,762 10.3 -25.4°
Drops below altitude 10° 12:46:00 10° 131° (SE) 4,394 11.6 -23.6°
Sets 12:48:57 0° 124° (SE) 5,009 12.2 -23.1°
